Weather History for Tekamah, NE

Change the Weather History Date:

Thursday, April 4, 2013

  Actual Average Record
Temperature  
Mean Temperature 44 °F -  
Max Temperature 64 °F 56 °F 82 °F (2005)
Min Temperature 24 °F 32 °F 14 °F (2002)
Degree Days  
Heating Degree Days 21    
Moisture  
Dew Point 27 °F    
Average Humidity 52    
Maximum Humidity 84    
Minimum Humidity 23    
Precipitation  
Precipitation 0.00 in - - ()
Sea Level Pressure  
Sea Level Pressure 30.13 in    
Wind  
Wind Speed 8 mph (North)    
Max Wind Speed 13 mph    
Max Gust Speed 21 mph    
Visibility 8 miles    
Events Rain    
Averages and records for this station are not official NWS values.
T = Trace of Precipitation, MM = Missing Value Source: NWS Daily Summary

Daily Weather History Graph

Daily Weather History Graph

Search for Another Location

Airport:

Trip Planner

Search our weather history database for the weather conditions in past years. The results will help you decide how hot, cold, wet, or windy it might be!

Date:

Astronomy

Apr. 04, 2013 Rise Set
Actual Time 7:02 AM CDT 7:53 PM CDT
Civil Twilight 6:33 AM CDT 8:22 PM CDT
Nautical Twilight 6:00 AM CDT 8:55 PM CDT
Astronomical Twilight 5:25 AM CDT 9:30 PM CDT
Moon 3:34 AM CDT (4/4) 2:08 PM CDT (4/4)
Length of Visible Light 13h 48m
Length of Day
12h 51m
Waning Crescent, 33% of the Moon is Illuminated
Apr 4
Waning Crescent
Apr 10
New
Apr 18
First Quarter
Apr 25
Full
May 2
Last Quarter

Hourly Weather History & Observations

Time (CDT) Temp. Windchill Dew Point Humidity Pressure Visibility Wind Dir Wind Speed Gust Speed Precip Events Conditions
12:54 AM 34.0 °F 26.0 °F 23.0 °F 64% 30.19 in 8.0 mi South 10.4 mph - N/A   Clear
1:54 AM 32.0 °F 25.6 °F 21.9 °F 66% 30.18 in 8.0 mi SSW 6.9 mph - N/A   Clear
2:54 AM 32.0 °F 28.7 °F 21.9 °F 66% 30.18 in 7.0 mi South 3.5 mph - N/A   Clear
3:54 AM 27.0 °F 20.5 °F 19.9 °F 75% 30.18 in 6.0 mi SSE 5.8 mph - N/A   Haze
4:54 AM 25.0 °F 16.3 °F 18.0 °F 75% 30.17 in 6.0 mi South 8.1 mph - N/A   Haze
5:54 AM 26.1 °F 18.4 °F 19.9 °F 78% 30.16 in 6.0 mi South 6.9 mph - N/A   Haze
6:54 AM 24.1 °F 16.0 °F 19.9 °F 84% 30.17 in 5.0 mi South 6.9 mph - N/A   Clear
7:54 AM 30.9 °F 24.3 °F 26.1 °F 82% 30.17 in 5.0 mi South 6.9 mph - N/A   Haze
8:54 AM 41.0 °F 35.2 °F 30.9 °F 67% 30.14 in 6.0 mi South 9.2 mph - N/A   Haze
9:54 AM 48.9 °F - 33.1 °F 54% 30.13 in 10.0 mi WSW 12.7 mph - 0.00 in Rain Light Rain
10:54 AM 51.1 °F - 33.1 °F 50% 30.12 in 8.0 mi WSW 9.2 mph - 0.00 in   Clear
11:54 AM 55.0 °F - 33.1 °F 43% 30.12 in 9.0 mi Variable 5.8 mph - N/A   Partly Cloudy
12:54 PM 57.0 °F - 33.1 °F 40% 30.11 in 8.0 mi West 8.1 mph - N/A   Clear
1:54 PM 61.0 °F - 34.0 °F 36% 30.10 in 10.0 mi NNE 9.2 mph - N/A   Clear
2:54 PM 62.1 °F - 34.0 °F 35% 30.08 in 9.0 mi NNE 9.2 mph 20.7 mph N/A   Clear
3:54 PM 63.0 °F - 33.1 °F 33% 30.07 in 9.0 mi NE 12.7 mph 20.7 mph N/A   Clear
4:54 PM 64.0 °F - 30.9 °F 29% 30.06 in 8.0 mi NNE 10.4 mph 20.7 mph N/A   Clear
5:54 PM 63.0 °F - 24.1 °F 23% 30.07 in 10.0 mi NNE 11.5 mph - N/A   Clear
6:54 PM 60.1 °F - 26.1 °F 27% 30.09 in 10.0 mi NNE 10.4 mph - N/A   Clear
7:54 PM 55.0 °F - 24.1 °F 30% 30.09 in 10.0 mi North 10.4 mph - N/A   Clear
8:54 PM 50.0 °F - 26.1 °F 39% 30.11 in 10.0 mi North 6.9 mph - N/A   Mostly Cloudy
9:54 PM 44.1 °F 40.8 °F 24.1 °F 45% 30.12 in 10.0 mi North 5.8 mph - N/A   Overcast
10:54 PM 39.9 °F 36.7 °F 23.0 °F 51% 30.13 in 10.0 mi North 4.6 mph - N/A   Partly Cloudy
11:54 PM 39.0 °F 35.7 °F 26.1 °F 60% 30.14 in 10.0 mi North 4.6 mph - N/A   Scattered Clouds